Time,TemperatureF,DewpointF,PressureIn,WindDirection,WindDirectionDegrees,WindSpeedMPH,WindSpeedGustMPH,Humidity,HourlyPrecipIn,Conditions,Clouds,dailyrainin,SoftwareType,DateUTC
2013-01-14 00:03:00,14.4,11.2,30.41,SSE,166,0.0,0.0,87,0.00,,,0.00,WUHU216DAVISVP2,2013-01-14 06:03:00,
2013-01-14 00:08:00,14.4,11.2,30.42,SSE,166,0.0,0.0,87,0.00,,,0.00,WUHU216DAVISVP2,2013-01-14 06:08:00,
2013-01-14 00:14:00,14.4,11.2,30.42,SSE,166,0.0,0.0,87,0.00,,,0.00,WUHU216DAVISVP2,2013-01-14 06:14:00,
2013-01-14 00:19:00,14.4,11.2,30.42,SSE,166,0.0,0.0,87,0.00,,,0.00,WUHU216DAVISVP2,2013-01-14 06:19:00,
2013-01-14 00:24:00,14.4,11.2,30.42,SSE,166,0.0,0.0,87,0.00,,,0.00,WUHU216DAVISVP2,2013-01-14 06:24:00,
2013-01-14 00:29:00,14.4,11.2,30.42,SSE,166,0.0,1.0,87,0.00,,,0.00,WUHU216DAVISVP2,2013-01-14 06:29:00,
2013-01-14 00:34:00,14.4,11.2,30.42,SSE,166,0.0,1.0,87,0.00,,,0.00,WUHU216DAVISVP2,2013-01-14 06:34:00,
2013-01-14 00:39:00,14.4,11.2,30.42,SSE,166,0.0,1.0,87,0.00,,,0.00,WUHU216DAVISVP2,2013-01-14 06:39:00,
2013-01-14 00:44:00,14.4,11.2,30.42,SSE,166,0.0,1.0,87,0.00,,,0.00,WUHU216DAVISVP2,2013-01-14 06:44:00,
2013-01-14 00:49:00,14.4,10.9,30.43,SSE,166,0.0,1.0,86,0.00,,,0.00,WUHU216DAVISVP2,2013-01-14 06:49:00,
2013-01-14 00:54:00,14.4,11.2,30.43,SSE,166,0.0,1.0,87,0.00,,,0.00,WUHU216DAVISVP2,2013-01-14 06:54:00,
2013-01-14 00:59:00,14.3,11.1,30.43,SSE,166,0.0,1.0,87,0.00,,,0.00,WUHU216DAVISVP2,2013-01-14 06:59:00,
2013-01-14 01:04:00,14.3,11.1,30.44,SSE,166,0.0,0.0,87,0.00,,,0.00,WUHU216DAVISVP2,2013-01-14 07:04:00,
2013-01-14 01:09:00,14.2,11.0,30.44,SSE,166,0.0,0.0,87,0.00,,,0.00,WUHU216DAVISVP2,2013-01-14 07:09:00,
2013-01-14 01:14:00,14.2,11.0,30.44,SSE,166,0.0,0.0,87,0.00,,,0.00,WUHU216DAVISVP2,2013-01-14 07:14:00,
2013-01-14 01:19:00,14.2,11.0,30.44,SSE,166,0.0,0.0,87,0.00,,,0.00,WUHU216DAVISVP2,2013-01-14 07:19:00,
2013-01-14 01:24:00,14.1,10.7,30.44,SSE,166,0.0,0.0,86,0.00,,,0.00,WUHU216DAVISVP2,2013-01-14 07:24:00,
2013-01-14 01:29:00,14.1,10.7,30.45,SSE,166,0.0,0.0,86,0.00,,,0.00,WUHU216DAVISVP2,2013-01-14 07:29:00,
2013-01-14 01:34:00,14.0,10.6,30.45,SSE,166,0.0,0.0,86,0.00,,,0.00,WUHU216DAVISVP2,2013-01-14 07:34:00,
2013-01-14 01:39:00,13.9,10.5,30.44,SSE,166,0.0,0.0,86,0.00,,,0.00,WUHU216DAVISVP2,2013-01-14 07:39:00,
2013-01-14 01:44:00,13.9,10.5,30.45,SSE,166,0.0,0.0,86,0.00,,,0.00,WUHU216DAVISVP2,2013-01-14 07:44:00,
2013-01-14 01:49:00,13.9,10.5,30.45,SSE,166,0.0,0.0,86,0.00,,,0.00,WUHU216DAVISVP2,2013-01-14 07:49:00,
2013-01-14 01:54:00,13.8,10.4,30.45,SSE,166,0.0,0.0,86,0.00,,,0.00,WUHU216DAVISVP2,2013-01-14 07:54:00,
2013-01-14 01:59:00,13.8,10.4,30.45,SSE,166,0.0,0.0,86,0.00,,,0.00,WUHU216DAVISVP2,2013-01-14 07:59:00,
2013-01-14 02:04:00,13.8,10.3,30.45,SSE,166,0.0,0.0,86,0.00,,,0.00,WUHU216DAVISVP2,2013-01-14 08:04:00,
2013-01-14 02:09:00,13.6,10.1,30.45,SSE,166,0.0,0.0,86,0.00,,,0.00,WUHU216DAVISVP2,2013-01-14 08:09:00,
2013-01-14 02:14:00,13.6,10.1,30.45,SSE,166,0.0,0.0,86,0.00,,,0.00,WUHU216DAVISVP2,2013-01-14 08:14:00,
2013-01-14 02:19:00,13.5,10.3,30.44,SSE,166,0.0,0.0,87,0.00,,,0.00,WUHU216DAVISVP2,2013-01-14 08:19:00,
2013-01-14 02:24:00,13.5,10.3,30.44,SSE,166,0.0,0.0,87,0.00,,,0.00,WUHU216DAVISVP2,2013-01-14 08:24:00,
2013-01-14 02:29:00,13.5,10.3,30.44,SSE,166,0.0,0.0,87,0.00,,,0.00,WUHU216DAVISVP2,2013-01-14 08:29:00,
2013-01-14 02:34:00,13.5,10.3,30.45,SSE,166,0.0,0.0,87,0.00,,,0.00,WUHU216DAVISVP2,2013-01-14 08:34:00,
2013-01-14 02:39:00,13.6,10.4,30.45,SSE,166,0.0,0.0,87,0.00,,,0.00,WUHU216DAVISVP2,2013-01-14 08:39:00,
2013-01-14 02:44:00,13.6,10.5,30.45,SSE,166,0.0,0.0,87,0.00,,,0.00,WUHU216DAVISVP2,2013-01-14 08:44:00,
2013-01-14 02:49:00,13.7,10.5,30.45,SSE,166,0.0,0.0,87,0.00,,,0.00,WUHU216DAVISVP2,2013-01-14 08:49:00,
2013-01-14 02:54:00,13.7,10.5,30.46,SSE,166,0.0,0.0,87,0.00,,,0.00,WUHU216DAVISVP2,2013-01-14 08:54:00,
2013-01-14 02:59:00,13.7,10.5,30.45,SSE,166,0.0,0.0,87,0.00,,,0.00,WUHU216DAVISVP2,2013-01-14 08:59:00,
2013-01-14 03:04:00,13.7,10.5,30.45,SSE,166,0.0,1.0,87,0.00,,,0.00,WUHU216DAVISVP2,2013-01-14 09:04:00,
2013-01-14 03:09:00,13.8,10.6,30.46,SSE,166,0.0,1.0,87,0.00,,,0.00,WUHU216DAVISVP2,2013-01-14 09:09:00,
2013-01-14 03:14:00,13.8,10.7,30.46,SSE,166,0.0,1.0,87,0.00,,,0.00,WUHU216DAVISVP2,2013-01-14 09:14:00,
2013-01-14 03:19:00,14.0,10.8,30.45,SSE,166,1.0,2.0,87,0.00,,,0.00,WUHU216DAVISVP2,2013-01-14 09:19:00,
2013-01-14 03:24:00,14.0,10.5,30.45,SSE,166,1.0,2.0,86,0.00,,,0.00,WUHU216DAVISVP2,2013-01-14 09:24:00,
2013-01-14 03:29:00,14.0,10.6,30.45,SSE,166,1.0,3.0,86,0.00,,,0.00,WUHU216DAVISVP2,2013-01-14 09:29:00,
2013-01-14 03:34:00,14.1,10.7,30.45,SSE,166,0.0,3.0,86,0.00,,,0.00,WUHU216DAVISVP2,2013-01-14 09:34:00,
2013-01-14 03:39:00,14.1,10.7,30.45,SSE,166,2.0,3.0,86,0.00,,,0.00,WUHU216DAVISVP2,2013-01-14 09:39:00,
2013-01-14 03:44:00,14.3,10.8,30.44,SSE,166,1.0,4.0,86,0.00,,,0.00,WUHU216DAVISVP2,2013-01-14 09:44:00,
2013-01-14 03:49:00,14.3,10.8,30.44,SSE,166,2.0,4.0,86,0.00,,,0.00,WUHU216DAVISVP2,2013-01-14 09:49:00,
2013-01-14 03:54:00,14.3,10.9,30.43,SSE,166,2.0,4.0,86,0.00,,,0.00,WUHU216DAVISVP2,2013-01-14 09:54:00,
2013-01-14 03:59:00,14.3,10.9,30.44,SSE,166,1.0,4.0,86,0.00,,,0.00,WUHU216DAVISVP2,2013-01-14 09:59:00,
2013-01-14 04:04:00,14.3,10.5,30.43,SSE,166,1.0,4.0,85,0.00,,,0.00,WUHU216DAVISVP2,2013-01-14 10:04:00,
2013-01-14 04:09:00,14.2,10.7,30.44,SSE,166,0.0,4.0,86,0.00,,,0.00,WUHU216DAVISVP2,2013-01-14 10:09:00,
2013-01-14 04:14:00,14.1,10.7,30.44,SSE,166,0.0,4.0,86,0.00,,,0.00,WUHU216DAVISVP2,2013-01-14 10:14:00,
2013-01-14 04:19:00,14.0,10.6,30.43,SSE,166,1.0,4.0,86,0.00,,,0.00,WUHU216DAVISVP2,2013-01-14 10:19:00,
2013-01-14 04:24:00,14.1,10.6,30.43,SSE,166,1.0,4.0,86,0.00,,,0.00,WUHU216DAVISVP2,2013-01-14 10:24:00,
2013-01-14 04:29:00,14.0,10.5,30.43,SSE,166,0.0,3.0,86,0.00,,,0.00,WUHU216DAVISVP2,2013-01-14 10:29:00,
2013-01-14 04:34:00,13.9,10.5,30.43,SSE,166,0.0,3.0,86,0.00,,,0.00,WUHU216DAVISVP2,2013-01-14 10:34:00,
2013-01-14 04:39:00,13.9,10.5,30.43,SSE,166,0.0,3.0,86,0.00,,,0.00,WUHU216DAVISVP2,2013-01-14 10:39:00,
2013-01-14 04:44:00,13.9,10.4,30.43,SSE,166,0.0,3.0,86,0.00,,,0.00,WUHU216DAVISVP2,2013-01-14 10:44:00,
2013-01-14 04:49:00,13.8,10.3,30.42,SSE,166,1.0,3.0,86,0.00,,,0.00,WUHU216DAVISVP2,2013-01-14 10:49:00,
2013-01-14 04:54:00,13.7,10.3,30.42,SSE,166,0.0,4.0,86,0.00,,,0.00,WUHU216DAVISVP2,2013-01-14 10:54:00,
2013-01-14 04:59:00,13.6,10.2,30.42,SSE,166,2.0,4.0,86,0.00,,,0.00,WUHU216DAVISVP2,2013-01-14 10:59:00,
2013-01-14 05:04:00,13.7,10.2,30.41,SSE,166,3.0,5.0,86,0.00,,,0.00,WUHU216DAVISVP2,2013-01-14 11:04:00,
2013-01-14 05:09:00,13.8,10.4,30.41,SSE,166,1.0,5.0,86,0.00,,,0.00,WUHU216DAVISVP2,2013-01-14 11:09:00,
2013-01-14 05:14:00,13.8,10.4,30.40,SSE,166,1.0,5.0,86,0.00,,,0.00,WUHU216DAVISVP2,2013-01-14 11:14:00,
2013-01-14 05:19:00,14.0,10.5,30.40,SSE,167,1.0,5.0,86,0.00,,,0.00,WUHU216DAVISVP2,2013-01-14 11:19:00,
2013-01-14 05:24:00,14.1,10.6,30.40,SSE,167,4.0,5.0,86,0.00,,,0.00,WUHU216DAVISVP2,2013-01-14 11:24:00,
2013-01-14 05:29:00,14.3,10.6,30.41,SSW,212,3.0,7.0,85,0.00,,,0.00,WUHU216DAVISVP2,2013-01-14 11:29:00,
2013-01-14 05:34:00,14.5,10.7,30.40,SSW,209,4.0,7.0,85,0.00,,,0.00,WUHU216DAVISVP2,2013-01-14 11:34:00,
2013-01-14 05:39:00,14.6,10.9,30.41,SSW,209,3.0,7.0,85,0.00,,,0.00,WUHU216DAVISVP2,2013-01-14 11:39:00,
2013-01-14 05:44:00,14.6,10.9,30.40,SSW,209,2.0,7.0,85,0.00,,,0.00,WUHU216DAVISVP2,2013-01-14 11:44:00,
2013-01-14 05:49:00,14.7,10.9,30.40,SSW,209,0.0,7.0,85,0.00,,,0.00,WUHU216DAVISVP2,2013-01-14 11:49:00,
2013-01-14 05:54:00,14.7,10.7,30.40,SSW,209,3.0,6.0,84,0.00,,,0.00,WUHU216DAVISVP2,2013-01-14 11:54:00,
2013-01-14 05:59:00,14.8,10.8,30.42,SSW,208,1.0,5.0,84,0.00,,,0.00,WUHU216DAVISVP2,2013-01-14 11:59:00,
2013-01-14 06:04:00,15.0,11.0,30.42,SSW,207,2.0,6.0,84,0.00,,,0.00,WUHU216DAVISVP2,2013-01-14 12:04:00,
2013-01-14 06:09:00,15.2,11.2,30.42,SSW,207,2.0,6.0,84,0.00,,,0.00,WUHU216DAVISVP2,2013-01-14 12:09:00,
2013-01-14 06:14:00,15.4,11.2,30.43,SSW,207,0.0,6.0,83,0.00,,,0.00,WUHU216DAVISVP2,2013-01-14 12:14:00,
2013-01-14 06:19:00,15.6,11.3,30.43,SSW,207,3.0,6.0,83,0.00,,,0.00,WUHU216DAVISVP2,2013-01-14 12:19:00,
2013-01-14 06:24:00,15.6,11.3,30.43,SSW,198,2.0,6.0,83,0.00,,,0.00,WUHU216DAVISVP2,2013-01-14 12:24:00,
2013-01-14 06:29:00,15.6,11.4,30.44,SSW,198,0.0,6.0,83,0.00,,,0.00,WUHU216DAVISVP2,2013-01-14 12:29:00,
2013-01-14 06:34:00,15.7,11.1,30.44,SSW,198,2.0,6.0,82,0.00,,,0.00,WUHU216DAVISVP2,2013-01-14 12:34:00,
2013-01-14 06:39:00,15.7,11.4,30.43,SSW,198,0.0,6.0,83,0.00,,,0.00,WUHU216DAVISVP2,2013-01-14 12:39:00,
2013-01-14 06:44:00,15.6,11.4,30.45,SSW,198,0.0,5.0,83,0.00,,,0.00,WUHU216DAVISVP2,2013-01-14 12:44:00,
2013-01-14 06:49:00,15.8,11.5,30.45,SSW,198,3.0,5.0,83,0.00,,,0.00,WUHU216DAVISVP2,2013-01-14 12:49:00,
2013-01-14 06:54:00,15.9,11.4,30.45,SSW,198,4.0,5.0,82,0.00,,,0.00,WUHU216DAVISVP2,2013-01-14 12:54:00,
2013-01-14 06:59:00,15.9,11.4,30.44,SSW,198,3.0,6.0,82,0.00,,,0.00,WUHU216DAVISVP2,2013-01-14 12:59:00,
2013-01-14 07:04:00,15.9,11.3,30.44,SSW,200,5.0,7.0,82,0.00,,,0.00,WUHU216DAVISVP2,2013-01-14 13:04:00,
2013-01-14 07:09:00,15.8,11.3,30.44,SSW,200,3.0,7.0,82,0.00,,,0.00,WUHU216DAVISVP2,2013-01-14 13:09:00,
2013-01-14 07:14:00,15.9,11.3,30.43,SSW,201,4.0,7.0,82,0.00,,,0.00,WUHU216DAVISVP2,2013-01-14 13:14:00,
2013-01-14 07:19:00,15.8,11.3,30.45,SSW,207,6.0,7.0,82,0.00,,,0.00,WUHU216DAVISVP2,2013-01-14 13:19:00,
2013-01-14 07:24:00,15.8,11.3,30.45,SSW,207,1.0,7.0,82,0.00,,,0.00,WUHU216DAVISVP2,2013-01-14 13:24:00,
2013-01-14 07:29:00,16.1,11.5,30.46,SSW,207,0.0,7.0,82,0.00,,,0.00,WUHU216DAVISVP2,2013-01-14 13:29:00,
2013-01-14 07:34:00,16.2,11.7,30.46,SSW,207,4.0,7.0,82,0.00,,,0.00,WUHU216DAVISVP2,2013-01-14 13:34:00,
2013-01-14 07:39:00,16.3,11.8,30.46,SSW,207,0.0,6.0,82,0.00,,,0.00,WUHU216DAVISVP2,2013-01-14 13:39:00,
2013-01-14 07:44:00,16.6,12.0,30.47,SSW,207,1.0,6.0,82,0.00,,,0.00,WUHU216DAVISVP2,2013-01-14 13:44:00,
2013-01-14 07:49:00,16.8,12.3,30.47,SSW,207,0.0,6.0,82,0.00,,,0.00,WUHU216DAVISVP2,2013-01-14 13:49:00,
2013-01-14 07:54:00,17.1,12.2,30.47,SSW,207,3.0,6.0,81,0.00,,,0.00,WUHU216DAVISVP2,2013-01-14 13:54:00,
2013-01-14 07:59:00,17.3,12.5,30.47,SSW,209,3.0,7.0,81,0.00,,,0.00,WUHU216DAVISVP2,2013-01-14 13:59:00,
2013-01-14 08:04:00,17.3,12.2,30.48,SSW,210,2.0,7.0,80,0.00,,,0.00,WUHU216DAVISVP2,2013-01-14 14:04:00,
2013-01-14 08:09:00,17.2,12.1,30.48,SSW,202,2.0,8.0,80,0.00,,,0.00,WUHU216DAVISVP2,2013-01-14 14:09:00,
2013-01-14 08:14:00,17.2,12.0,30.49,SSW,203,6.0,8.0,80,0.00,,,0.00,WUHU216DAVISVP2,2013-01-14 14:14:00,
2013-01-14 08:19:00,17.1,12.0,30.49,SSW,203,1.0,8.0,80,0.00,,,0.00,WUHU216DAVISVP2,2013-01-14 14:19:00,
2013-01-14 08:24:00,17.2,11.8,30.48,SSW,210,7.0,8.0,79,0.00,,,0.00,WUHU216DAVISVP2,2013-01-14 14:24:00,
2013-01-14 08:29:00,17.1,11.7,30.47,SSW,212,5.0,9.0,79,0.00,,,0.00,WUHU216DAVISVP2,2013-01-14 14:29:00,
2013-01-14 08:34:00,17.0,11.7,30.47,SW,225,2.0,9.0,79,0.00,,,0.00,WUHU216DAVISVP2,2013-01-14 14:34:00,
2013-01-14 08:39:00,17.1,11.4,30.48,SW,220,2.0,9.0,78,0.00,,,0.00,WUHU216DAVISVP2,2013-01-14 14:39:00,
2013-01-14 08:44:00,17.1,11.7,30.48,SW,216,6.0,9.0,79,0.00,,,0.00,WUHU216DAVISVP2,2013-01-14 14:44:00,
2013-01-14 08:49:00,17.1,11.1,30.50,WSW,245,3.0,9.0,77,0.00,,,0.00,WUHU216DAVISVP2,2013-01-14 14:49:00,
2013-01-14 08:54:00,17.1,11.2,30.50,WSW,243,3.0,8.0,77,0.00,,,0.00,WUHU216DAVISVP2,2013-01-14 14:54:00,
2013-01-14 08:59:00,17.3,11.0,30.51,SW,222,5.0,8.0,76,0.00,,,0.00,WUHU216DAVISVP2,2013-01-14 14:59:00,
2013-01-14 09:04:00,17.4,10.9,30.50,SW,234,5.0,8.0,75,0.00,,,0.00,WUHU216DAVISVP2,2013-01-14 15:04:00,
2013-01-14 09:09:00,17.7,10.8,30.50,WSW,241,4.0,8.0,74,0.00,,,0.00,WUHU216DAVISVP2,2013-01-14 15:09:00,
2013-01-14 09:14:00,17.7,10.6,30.50,WSW,245,3.0,8.0,73,0.00,,,0.00,WUHU216DAVISVP2,2013-01-14 15:14:00,
2013-01-14 09:19:00,17.8,10.6,30.50,West,268,1.0,8.0,73,0.00,,,0.00,WUHU216DAVISVP2,2013-01-14 15:19:00,
2013-01-14 09:24:00,17.8,10.7,30.50,West,277,4.0,7.0,73,0.00,,,0.00,WUHU216DAVISVP2,2013-01-14 15:24:00,
2013-01-14 09:29:00,17.9,10.7,30.50,West,272,6.0,7.0,73,0.00,,,0.00,WUHU216DAVISVP2,2013-01-14 15:29:00,
2013-01-14 09:34:00,17.9,9.5,30.51,WSW,256,8.0,10.0,69,0.00,,,0.00,WUHU216DAVISVP2,2013-01-14 15:34:00,
2013-01-14 09:39:00,17.8,9.7,30.51,West,259,5.0,10.0,70,0.00,,,0.00,WUHU216DAVISVP2,2013-01-14 15:39:00,
2013-01-14 09:44:00,17.8,9.1,30.51,WSW,252,4.0,10.0,68,0.00,,,0.00,WUHU216DAVISVP2,2013-01-14 15:44:00,
2013-01-14 09:49:00,17.9,9.8,30.52,WNW,285,4.0,10.0,70,0.00,,,0.00,WUHU216DAVISVP2,2013-01-14 15:49:00,
2013-01-14 09:54:00,17.8,9.4,30.52,West,276,9.0,10.0,69,0.00,,,0.00,WUHU216DAVISVP2,2013-01-14 15:54:00,
2013-01-14 09:59:00,17.8,9.1,30.52,WSW,252,5.0,10.0,68,0.00,,,0.00,WUHU216DAVISVP2,2013-01-14 15:59:00,
2013-01-14 10:04:00,17.9,9.8,30.53,West,260,3.0,10.0,70,0.00,,,0.00,WUHU216DAVISVP2,2013-01-14 16:04:00,
2013-01-14 10:09:00,17.8,9.4,30.53,West,274,4.0,10.0,69,0.00,,,0.00,WUHU216DAVISVP2,2013-01-14 16:09:00,
2013-01-14 10:14:00,17.7,9.3,30.54,West,274,0.0,10.0,69,0.00,,,0.00,WUHU216DAVISVP2,2013-01-14 16:14:00,
2013-01-14 10:19:00,17.8,9.7,30.54,West,274,2.0,9.0,70,0.00,,,0.00,WUHU216DAVISVP2,2013-01-14 16:19:00,
2013-01-14 10:24:00,17.9,9.2,30.54,West,277,3.0,9.0,68,0.00,,,0.00,WUHU216DAVISVP2,2013-01-14 16:24:00,
2013-01-14 10:29:00,17.9,9.5,30.55,West,277,4.0,6.0,69,0.00,,,0.00,WUHU216DAVISVP2,2013-01-14 16:29:00,
2013-01-14 10:34:00,17.8,8.4,30.55,West,277,3.0,6.0,66,0.00,,,0.00,WUHU216DAVISVP2,2013-01-14 16:34:00,
2013-01-14 10:39:00,17.7,8.6,30.54,West,277,6.0,6.0,67,0.00,,,0.00,WUHU216DAVISVP2,2013-01-14 16:39:00,
2013-01-14 10:44:00,17.6,8.2,30.53,West,277,4.0,6.0,66,0.00,,,0.00,WUHU216DAVISVP2,2013-01-14 16:44:00,
2013-01-14 10:49:00,17.8,9.7,30.54,West,277,3.0,6.0,70,0.00,,,0.00,WUHU216DAVISVP2,2013-01-14 16:49:00,
2013-01-14 10:54:00,17.9,9.8,30.53,WNW,293,4.0,7.0,70,0.00,,,0.00,WUHU216DAVISVP2,2013-01-14 16:54:00,
2013-01-14 10:59:00,17.7,9.3,30.53,WNW,282,1.0,7.0,69,0.00,,,0.00,WUHU216DAVISVP2,2013-01-14 16:59:00,
2013-01-14 11:04:00,17.6,9.2,30.53,WNW,282,2.0,7.0,69,0.00,,,0.00,WUHU216DAVISVP2,2013-01-14 17:04:00,
2013-01-14 11:09:00,17.7,9.3,30.53,WNW,283,4.0,7.0,69,0.00,,,0.00,WUHU216DAVISVP2,2013-01-14 17:09:00,
2013-01-14 11:14:00,17.8,8.4,30.54,WNW,283,0.0,6.0,66,0.00,,,0.00,WUHU216DAVISVP2,2013-01-14 17:14:00,
2013-01-14 11:19:00,17.9,8.9,30.53,WNW,283,4.0,6.0,67,0.00,,,0.00,WUHU216DAVISVP2,2013-01-14 17:19:00,
2013-01-14 11:24:00,18.0,10.0,30.53,WNW,284,5.0,7.0,70,0.00,,,0.00,WUHU216DAVISVP2,2013-01-14 17:24:00,
2013-01-14 11:29:00,18.3,9.2,30.52,WNW,287,2.0,7.0,67,0.00,,,0.00,WUHU216DAVISVP2,2013-01-14 17:29:00,
2013-01-14 11:34:00,18.6,9.2,30.52,West,281,5.0,8.0,66,0.00,,,0.00,WUHU216DAVISVP2,2013-01-14 17:34:00,
2013-01-14 11:39:00,18.7,10.0,30.51,West,276,6.0,8.0,68,0.00,,,0.00,WUHU216DAVISVP2,2013-01-14 17:39:00,
2013-01-14 11:44:00,18.8,9.0,30.51,WNW,285,6.0,10.0,65,0.00,,,0.00,WUHU216DAVISVP2,2013-01-14 17:44:00,
2013-01-14 11:49:00,18.8,8.7,30.50,West,270,0.0,10.0,64,0.00,,,0.00,WUHU216DAVISVP2,2013-01-14 17:49:00,
2013-01-14 11:54:00,18.9,9.4,30.50,West,277,9.0,10.0,66,0.00,,,0.00,WUHU216DAVISVP2,2013-01-14 17:54:00,
2013-01-14 11:59:00,18.9,9.5,30.50,WNW,282,3.0,10.0,66,0.00,,,0.00,WUHU216DAVISVP2,2013-01-14 17:59:00,
2013-01-14 12:04:00,19.0,8.8,30.50,West,260,3.0,9.0,64,0.00,,,0.00,WUHU216DAVISVP2,2013-01-14 18:04:00,
2013-01-14 12:09:00,19.0,9.6,30.50,West,262,4.0,9.0,66,0.00,,,0.00,WUHU216DAVISVP2,2013-01-14 18:09:00,
2013-01-14 12:14:00,19.1,9.6,30.49,West,260,4.0,7.0,66,0.00,,,0.00,WUHU216DAVISVP2,2013-01-14 18:14:00,
2013-01-14 12:19:00,19.2,9.8,30.48,WSW,243,6.0,9.0,66,0.00,,,0.00,WUHU216DAVISVP2,2013-01-14 18:19:00,
2013-01-14 12:24:00,19.3,9.2,30.47,WSW,240,2.0,9.0,64,0.01,,,0.01,WUHU216DAVISVP2,2013-01-14 18:24:00,
2013-01-14 12:29:00,19.6,9.8,30.47,WNW,300,3.0,10.0,65,0.01,,,0.01,WUHU216DAVISVP2,2013-01-14 18:29:00,
2013-01-14 12:34:00,20.0,9.8,30.46,WNW,299,0.0,10.0,64,0.01,,,0.01,WUHU216DAVISVP2,2013-01-14 18:34:00,
2013-01-14 12:39:00,20.2,10.4,30.46,SSW,212,3.0,10.0,65,0.01,,,0.01,WUHU216DAVISVP2,2013-01-14 18:39:00,
2013-01-14 12:44:00,20.1,9.6,30.46,SW,229,8.0,10.0,63,0.01,,,0.01,WUHU216DAVISVP2,2013-01-14 18:44:00,
2013-01-14 12:49:00,20.0,9.1,30.46,WNW,289,2.0,10.0,62,0.01,,,0.01,WUHU216DAVISVP2,2013-01-14 18:49:00,
2013-01-14 12:54:00,20.2,10.4,30.46,WNW,294,3.0,9.0,65,0.01,,,0.01,WUHU216DAVISVP2,2013-01-14 18:54:00,
2013-01-14 12:59:00,20.7,10.1,30.45,WSW,254,1.0,9.0,63,0.01,,,0.01,WUHU216DAVISVP2,2013-01-14 18:59:00,
2013-01-14 13:04:00,20.7,9.4,30.45,West,270,1.0,8.0,61,0.01,,,0.01,WUHU216DAVISVP2,2013-01-14 19:04:00,
2013-01-14 13:09:00,21.0,10.8,30.45,WSW,251,8.0,9.0,64,0.01,,,0.01,WUHU216DAVISVP2,2013-01-14 19:09:00,
2013-01-14 13:14:00,20.9,10.0,30.44,WNW,289,1.0,9.0,62,0.01,,,0.01,WUHU216DAVISVP2,2013-01-14 19:14:00,
2013-01-14 13:19:00,21.0,10.8,30.44,WSW,256,5.0,9.0,64,0.01,,,0.01,WUHU216DAVISVP2,2013-01-14 19:19:00,
2013-01-14 13:24:00,21.1,9.8,30.43,West,274,5.0,10.0,61,0.00,,,0.01,WUHU216DAVISVP2,2013-01-14 19:24:00,
2013-01-14 13:29:00,21.3,10.7,30.43,WSW,240,3.0,10.0,63,0.00,,,0.01,WUHU216DAVISVP2,2013-01-14 19:29:00,
2013-01-14 13:34:00,21.4,10.8,30.43,WNW,282,2.0,10.0,63,0.00,,,0.01,WUHU216DAVISVP2,2013-01-14 19:34:00,
2013-01-14 13:39:00,21.4,10.1,30.43,WSW,254,4.0,10.0,61,0.00,,,0.01,WUHU216DAVISVP2,2013-01-14 19:39:00,
2013-01-14 13:44:00,21.6,11.0,30.43,WSW,256,7.0,10.0,63,0.00,,,0.01,WUHU216DAVISVP2,2013-01-14 19:44:00,
2013-01-14 13:49:00,22.0,12.1,30.43,WNW,285,7.0,10.0,65,0.00,,,0.01,WUHU216DAVISVP2,2013-01-14 19:49:00,
2013-01-14 13:54:00,22.1,11.9,30.43,WNW,296,2.0,10.0,64,0.00,,,0.01,WUHU216DAVISVP2,2013-01-14 19:54:00,
2013-01-14 13:59:00,22.3,11.3,30.43,West,272,1.0,10.0,62,0.00,,,0.01,WUHU216DAVISVP2,2013-01-14 19:59:00,
2013-01-14 14:04:00,22.5,11.9,30.43,WNW,283,3.0,10.0,63,0.00,,,0.01,WUHU216DAVISVP2,2013-01-14 20:04:00,
2013-01-14 14:09:00,22.6,11.6,30.42,West,260,7.0,10.0,62,0.00,,,0.01,WUHU216DAVISVP2,2013-01-14 20:09:00,
2013-01-14 14:14:00,22.4,11.4,30.42,SW,236,0.0,10.0,62,0.00,,,0.01,WUHU216DAVISVP2,2013-01-14 20:14:00,
2013-01-14 14:19:00,22.9,12.2,30.42,SW,224,5.0,10.0,63,0.00,,,0.01,WUHU216DAVISVP2,2013-01-14 20:19:00,
2013-01-14 14:24:00,23.0,12.3,30.42,West,273,6.0,10.0,63,0.00,,,0.01,WUHU216DAVISVP2,2013-01-14 20:24:00,
2013-01-14 14:29:00,23.1,12.1,30.42,WNW,291,5.0,9.0,62,0.00,,,0.01,WUHU216DAVISVP2,2013-01-14 20:29:00,
2013-01-14 14:34:00,23.3,11.9,30.42,WSW,258,5.0,10.0,61,0.00,,,0.01,WUHU216DAVISVP2,2013-01-14 20:34:00,
2013-01-14 14:39:00,23.6,12.5,30.42,WSW,243,3.0,10.0,62,0.00,,,0.01,WUHU216DAVISVP2,2013-01-14 20:39:00,
2013-01-14 14:44:00,23.8,12.7,30.42,SW,227,5.0,10.0,62,0.00,,,0.01,WUHU216DAVISVP2,2013-01-14 20:44:00,
2013-01-14 14:49:00,24.0,12.5,30.42,SSW,209,3.0,10.0,61,0.00,,,0.01,WUHU216DAVISVP2,2013-01-14 20:49:00,
2013-01-14 14:54:00,24.3,12.9,30.42,WSW,258,7.0,10.0,61,0.00,,,0.01,WUHU216DAVISVP2,2013-01-14 20:54:00,
2013-01-14 14:59:00,24.3,12.5,30.42,WSW,243,9.0,11.0,60,0.00,,,0.01,WUHU216DAVISVP2,2013-01-14 20:59:00,
2013-01-14 15:04:00,24.4,12.6,30.43,WSW,240,8.0,11.0,60,0.00,,,0.01,WUHU216DAVISVP2,2013-01-14 21:04:00,
2013-01-14 15:09:00,24.5,12.6,30.43,South,186,5.0,11.0,60,0.00,,,0.01,WUHU216DAVISVP2,2013-01-14 21:09:00,
2013-01-14 15:14:00,24.8,12.2,30.43,WSW,243,6.0,11.0,58,0.00,,,0.01,WUHU216DAVISVP2,2013-01-14 21:14:00,
2013-01-14 15:19:00,24.9,13.4,30.42,SW,218,5.0,11.0,61,0.00,,,0.01,WUHU216DAVISVP2,2013-01-14 21:19:00,
2013-01-14 15:24:00,25.2,13.3,30.42,SW,224,9.0,11.0,60,0.00,,,0.01,WUHU216DAVISVP2,2013-01-14 21:24:00,
2013-01-14 15:29:00,25.2,13.7,30.42,WSW,250,3.0,11.0,61,0.00,,,0.01,WUHU216DAVISVP2,2013-01-14 21:29:00,
2013-01-14 15:34:00,25.5,13.1,30.42,WSW,245,7.0,12.0,59,0.00,,,0.01,WUHU216DAVISVP2,2013-01-14 21:34:00,
2013-01-14 15:39:00,25.6,13.6,30.42,WSW,256,5.0,12.0,60,0.00,,,0.01,WUHU216DAVISVP2,2013-01-14 21:39:00,
2013-01-14 15:44:00,25.7,13.8,30.42,WSW,249,5.0,12.0,60,0.00,,,0.01,WUHU216DAVISVP2,2013-01-14 21:44:00,
2013-01-14 15:49:00,25.8,13.9,30.42,West,261,9.0,12.0,60,0.00,,,0.01,WUHU216DAVISVP2,2013-01-14 21:49:00,
2013-01-14 15:54:00,25.8,14.3,30.42,WSW,258,4.0,12.0,61,0.00,,,0.01,WUHU216DAVISVP2,2013-01-14 21:54:00,
2013-01-14 15:59:00,26.1,14.5,30.42,WSW,242,4.0,12.0,61,0.00,,,0.01,WUHU216DAVISVP2,2013-01-14 21:59:00,
2013-01-14 16:04:00,26.1,14.5,30.42,WSW,238,9.0,12.0,61,0.00,,,0.01,WUHU216DAVISVP2,2013-01-14 22:04:00,
2013-01-14 16:09:00,26.0,14.4,30.42,SW,230,4.0,11.0,61,0.00,,,0.01,WUHU216DAVISVP2,2013-01-14 22:09:00,
2013-01-14 16:14:00,26.3,14.4,30.42,SW,233,5.0,11.0,60,0.00,,,0.01,WUHU216DAVISVP2,2013-01-14 22:14:00,
2013-01-14 16:19:00,26.6,14.2,30.42,WSW,237,5.0,11.0,59,0.00,,,0.01,WUHU216DAVISVP2,2013-01-14 22:19:00,
2013-01-14 16:24:00,26.4,13.7,30.42,WSW,247,10.0,11.0,58,0.00,,,0.01,WUHU216DAVISVP2,2013-01-14 22:24:00,
2013-01-14 16:29:00,26.5,14.5,30.42,WSW,240,6.0,11.0,60,0.00,,,0.01,WUHU216DAVISVP2,2013-01-14 22:29:00,
2013-01-14 16:34:00,26.5,14.5,30.42,WSW,247,8.0,11.0,60,0.00,,,0.01,WUHU216DAVISVP2,2013-01-14 22:34:00,
2013-01-14 16:39:00,26.5,14.6,30.42,WSW,246,5.0,11.0,60,0.00,,,0.01,WUHU216DAVISVP2,2013-01-14 22:39:00,
2013-01-14 16:44:00,26.6,14.6,30.42,WSW,245,6.0,10.0,60,0.00,,,0.01,WUHU216DAVISVP2,2013-01-14 22:44:00,
2013-01-14 16:49:00,26.6,14.3,30.42,West,265,5.0,9.0,59,0.00,,,0.01,WUHU216DAVISVP2,2013-01-14 22:49:00,
2013-01-14 16:54:00,26.7,14.3,30.42,West,277,6.0,9.0,59,0.00,,,0.01,WUHU216DAVISVP2,2013-01-14 22:54:00,
2013-01-14 16:59:00,26.6,15.0,30.42,West,262,5.0,9.0,61,0.00,,,0.01,WUHU216DAVISVP2,2013-01-14 22:59:00,
2013-01-14 17:04:00,26.6,15.4,30.41,West,262,4.0,9.0,62,0.00,,,0.01,WUHU216DAVISVP2,2013-01-14 23:04:00,
2013-01-14 17:09:00,26.5,15.7,30.41,WSW,249,5.0,9.0,63,0.00,,,0.01,WUHU216DAVISVP2,2013-01-14 23:09:00,
2013-01-14 17:14:00,26.3,15.4,30.41,WSW,249,5.0,9.0,63,0.00,,,0.01,WUHU216DAVISVP2,2013-01-14 23:14:00,
2013-01-14 17:19:00,26.2,15.8,30.41,WSW,249,4.0,8.0,64,0.00,,,0.01,WUHU216DAVISVP2,2013-01-14 23:19:00,
2013-01-14 17:24:00,26.2,16.1,30.41,WSW,250,6.0,8.0,65,0.00,,,0.01,WUHU216DAVISVP2,2013-01-14 23:24:00,
2013-01-14 17:29:00,26.1,16.4,30.41,WSW,252,4.0,7.0,66,0.00,,,0.01,WUHU216DAVISVP2,2013-01-14 23:29:00,
2013-01-14 17:34:00,26.2,16.8,30.41,WSW,252,1.0,7.0,67,0.00,,,0.01,WUHU216DAVISVP2,2013-01-14 23:34:00,
2013-01-14 17:39:00,26.1,16.7,30.41,WSW,252,5.0,7.0,67,0.00,,,0.01,WUHU216DAVISVP2,2013-01-14 23:39:00,
2013-01-14 17:44:00,26.1,16.7,30.41,WSW,252,2.0,7.0,67,0.00,,,0.01,WUHU216DAVISVP2,2013-01-14 23:44:00,
2013-01-14 17:49:00,26.0,16.9,30.41,WSW,252,6.0,7.0,68,0.00,,,0.01,WUHU216DAVISVP2,2013-01-14 23:49:00,
2013-01-14 17:54:00,25.9,17.2,30.41,WSW,252,5.0,7.0,69,0.00,,,0.01,WUHU216DAVISVP2,2013-01-14 23:54:00,
2013-01-14 17:59:00,26.0,17.3,30.41,WSW,254,6.0,8.0,69,0.00,,,0.01,WUHU216DAVISVP2,2013-01-14 23:59:00,
2013-01-14 18:04:00,25.8,17.4,30.41,WSW,249,6.0,9.0,70,0.00,,,0.01,WUHU216DAVISVP2,2013-01-15 00:04:00,
2013-01-14 18:09:00,25.6,17.3,30.41,WSW,242,6.0,9.0,70,0.00,,,0.01,WUHU216DAVISVP2,2013-01-15 00:09:00,
2013-01-14 18:14:00,25.5,17.1,30.41,WSW,242,3.0,9.0,70,0.00,,,0.01,WUHU216DAVISVP2,2013-01-15 00:14:00,
2013-01-14 18:19:00,25.4,17.3,30.41,WSW,242,4.0,9.0,71,0.00,,,0.01,WUHU216DAVISVP2,2013-01-15 00:19:00,
2013-01-14 18:24:00,25.1,17.1,30.41,WSW,243,7.0,8.0,71,0.00,,,0.01,WUHU216DAVISVP2,2013-01-15 00:24:00,
2013-01-14 18:29:00,25.1,17.1,30.41,WSW,241,3.0,8.0,71,0.00,,,0.01,WUHU216DAVISVP2,2013-01-15 00:29:00,
2013-01-14 18:34:00,24.9,17.2,30.41,WSW,242,3.0,8.0,72,0.00,,,0.01,WUHU216DAVISVP2,2013-01-15 00:34:00,
2013-01-14 18:39:00,24.8,17.1,30.42,WSW,243,4.0,8.0,72,0.00,,,0.01,WUHU216DAVISVP2,2013-01-15 00:39:00,
2013-01-14 18:44:00,24.7,17.3,30.41,SW,233,4.0,8.0,73,0.00,,,0.01,WUHU216DAVISVP2,2013-01-15 00:44:00,
2013-01-14 18:49:00,24.4,17.1,30.42,SW,233,2.0,8.0,73,0.00,,,0.01,WUHU216DAVISVP2,2013-01-15 00:49:00,
2013-01-14 18:54:00,24.3,17.2,30.42,SW,234,5.0,8.0,74,0.00,,,0.01,WUHU216DAVISVP2,2013-01-15 00:54:00,
2013-01-14 18:59:00,24.2,17.1,30.41,SW,235,4.0,7.0,74,0.00,,,0.01,WUHU216DAVISVP2,2013-01-15 00:59:00,
2013-01-14 19:04:00,24.0,17.3,30.41,SW,235,3.0,7.0,75,0.00,,,0.01,WUHU216DAVISVP2,2013-01-15 01:04:00,
2013-01-14 19:09:00,23.9,17.1,30.41,SW,235,2.0,7.0,75,0.00,,,0.01,WUHU216DAVISVP2,2013-01-15 01:09:00,
2013-01-14 19:14:00,23.8,17.3,30.41,SW,235,3.0,6.0,76,0.00,,,0.01,WUHU216DAVISVP2,2013-01-15 01:14:00,
2013-01-14 19:19:00,23.7,17.3,30.41,SW,235,3.0,5.0,76,0.00,,,0.01,WUHU216DAVISVP2,2013-01-15 01:19:00,
2013-01-14 19:24:00,23.6,17.2,30.41,SW,235,0.0,5.0,76,0.00,,,0.01,WUHU216DAVISVP2,2013-01-15 01:24:00,
2013-01-14 19:29:00,23.4,17.0,30.41,SW,235,3.0,5.0,76,0.00,,,0.01,WUHU216DAVISVP2,2013-01-15 01:29:00,
2013-01-14 19:34:00,23.3,17.2,30.41,SW,235,5.0,5.0,77,0.00,,,0.01,WUHU216DAVISVP2,2013-01-15 01:34:00,
2013-01-14 19:39:00,23.2,17.1,30.41,SW,235,1.0,6.0,77,0.00,,,0.01,WUHU216DAVISVP2,2013-01-15 01:39:00,
2013-01-14 19:44:00,23.1,16.7,30.41,SW,235,3.0,6.0,76,0.00,,,0.01,WUHU216DAVISVP2,2013-01-15 01:44:00,
2013-01-14 19:49:00,23.0,16.6,30.41,SW,235,3.0,6.0,76,0.00,,,0.01,WUHU216DAVISVP2,2013-01-15 01:49:00,
2013-01-14 19:54:00,22.8,16.4,30.41,SW,235,4.0,6.0,76,0.00,,,0.01,WUHU216DAVISVP2,2013-01-15 01:54:00,
2013-01-14 19:59:00,22.6,16.2,30.41,SW,235,4.0,6.0,76,0.00,,,0.01,WUHU216DAVISVP2,2013-01-15 01:59:00,
2013-01-14 20:04:00,22.5,16.1,30.41,SW,235,1.0,6.0,76,0.00,,,0.01,WUHU216DAVISVP2,2013-01-15 02:04:00,
2013-01-14 20:09:00,22.4,16.0,30.41,SW,235,0.0,6.0,76,0.00,,,0.01,WUHU216DAVISVP2,2013-01-15 02:09:00,
2013-01-14 20:14:00,22.2,16.1,30.41,SW,235,2.0,4.0,77,0.00,,,0.01,WUHU216DAVISVP2,2013-01-15 02:14:00,
2013-01-14 20:19:00,22.1,16.0,30.41,SW,235,0.0,4.0,77,0.00,,,0.01,WUHU216DAVISVP2,2013-01-15 02:19:00,
2013-01-14 20:24:00,22.0,15.9,30.41,SW,235,1.0,4.0,77,0.00,,,0.01,WUHU216DAVISVP2,2013-01-15 02:24:00,
2013-01-14 20:29:00,21.8,15.8,30.41,SW,235,0.0,3.0,77,0.00,,,0.01,WUHU216DAVISVP2,2013-01-15 02:29:00,
2013-01-14 20:34:00,21.8,15.4,30.41,SW,235,0.0,3.0,76,0.00,,,0.01,WUHU216DAVISVP2,2013-01-15 02:34:00,
2013-01-14 20:39:00,21.7,15.3,30.41,SW,235,2.0,2.0,76,0.00,,,0.01,WUHU216DAVISVP2,2013-01-15 02:39:00,
2013-01-14 20:44:00,21.5,15.2,30.41,SW,235,0.0,4.0,76,0.00,,,0.01,WUHU216DAVISVP2,2013-01-15 02:44:00,
2013-01-14 20:49:00,21.5,15.1,30.41,SW,235,0.0,4.0,76,0.00,,,0.01,WUHU216DAVISVP2,2013-01-15 02:49:00,
2013-01-14 20:54:00,21.4,15.3,30.41,SW,235,1.0,4.0,77,0.00,,,0.01,WUHU216DAVISVP2,2013-01-15 02:54:00,
2013-01-14 20:59:00,21.4,15.3,30.41,SW,235,0.0,4.0,77,0.00,,,0.01,WUHU216DAVISVP2,2013-01-15 02:59:00,
2013-01-14 21:04:00,21.2,15.2,30.41,SW,235,0.0,4.0,77,0.00,,,0.01,WUHU216DAVISVP2,2013-01-15 03:04:00,
2013-01-14 21:09:00,21.1,15.0,30.41,SW,235,0.0,4.0,77,0.00,,,0.01,WUHU216DAVISVP2,2013-01-15 03:09:00,
2013-01-14 21:14:00,21.1,15.0,30.41,SW,235,0.0,3.0,77,0.00,,,0.01,WUHU216DAVISVP2,2013-01-15 03:14:00,
2013-01-14 21:19:00,20.8,14.8,30.41,SW,235,0.0,4.0,77,0.00,,,0.01,WUHU216DAVISVP2,2013-01-15 03:19:00,
2013-01-14 21:24:00,20.7,15.0,30.41,SW,235,0.0,4.0,78,0.00,,,0.01,WUHU216DAVISVP2,2013-01-15 03:24:00,
2013-01-14 21:29:00,20.7,14.9,30.42,SW,235,1.0,4.0,78,0.00,,,0.01,WUHU216DAVISVP2,2013-01-15 03:29:00,
2013-01-14 21:34:00,20.6,14.8,30.42,SW,235,0.0,2.0,78,0.00,,,0.01,WUHU216DAVISVP2,2013-01-15 03:34:00,
2013-01-14 21:39:00,20.3,14.6,30.42,SW,235,0.0,3.0,78,0.00,,,0.01,WUHU216DAVISVP2,2013-01-15 03:39:00,
2013-01-14 21:44:00,20.2,14.7,30.42,SW,235,3.0,3.0,79,0.00,,,0.01,WUHU216DAVISVP2,2013-01-15 03:44:00,
2013-01-14 21:49:00,19.9,14.4,30.42,SW,235,2.0,3.0,79,0.00,,,0.01,WUHU216DAVISVP2,2013-01-15 03:49:00,
2013-01-14 21:54:00,19.8,14.6,30.42,SW,235,1.0,3.0,80,0.00,,,0.01,WUHU216DAVISVP2,2013-01-15 03:54:00,
2013-01-14 21:59:00,19.6,14.5,30.42,SW,235,3.0,3.0,80,0.00,,,0.01,WUHU216DAVISVP2,2013-01-15 03:59:00,
2013-01-14 22:04:00,19.3,14.2,30.42,SW,235,0.0,3.0,80,0.00,,,0.01,WUHU216DAVISVP2,2013-01-15 04:04:00,
2013-01-14 22:09:00,19.2,14.3,30.42,SW,235,0.0,3.0,81,0.00,,,0.01,WUHU216DAVISVP2,2013-01-15 04:09:00,
2013-01-14 22:14:00,19.1,14.2,30.42,SW,235,0.0,3.0,81,0.00,,,0.01,WUHU216DAVISVP2,2013-01-15 04:14:00,
2013-01-14 22:19:00,19.0,14.4,30.42,SW,235,0.0,3.0,82,0.00,,,0.01,WUHU216DAVISVP2,2013-01-15 04:19:00,
2013-01-14 22:24:00,18.7,14.1,30.42,SW,235,0.0,2.0,82,0.00,,,0.01,WUHU216DAVISVP2,2013-01-15 04:24:00,
2013-01-14 22:29:00,18.6,14.0,30.42,SW,235,0.0,0.0,82,0.00,,,0.01,WUHU216DAVISVP2,2013-01-15 04:29:00,
2013-01-14 22:34:00,18.5,14.2,30.42,SW,235,0.0,0.0,83,0.00,,,0.01,WUHU216DAVISVP2,2013-01-15 04:34:00,
2013-01-14 22:39:00,18.3,14.2,30.42,SW,235,0.0,0.0,84,0.00,,,0.01,WUHU216DAVISVP2,2013-01-15 04:39:00,
2013-01-14 22:44:00,18.2,14.1,30.42,SW,235,0.0,0.0,84,0.00,,,0.01,WUHU216DAVISVP2,2013-01-15 04:44:00,
2013-01-14 22:49:00,18.1,14.1,30.42,SW,235,0.0,0.0,84,0.00,,,0.01,WUHU216DAVISVP2,2013-01-15 04:49:00,
2013-01-14 22:54:00,18.1,14.1,30.41,SW,235,1.0,4.0,84,0.00,,,0.01,WUHU216DAVISVP2,2013-01-15 04:54:00,
2013-01-14 22:59:00,18.3,14.0,30.41,SW,235,0.0,4.0,83,0.00,,,0.01,WUHU216DAVISVP2,2013-01-15 04:59:00,
2013-01-14 23:00:00,18.3,14.0,30.41,SW,235,0.0,4.0,83,0.00,,,0.01,WUHU216DAVISVP2,2013-01-15 05:00:00,
2013-01-14 23:01:00,18.3,14.0,30.41,SW,235,0.0,4.0,83,0.00,,,0.01,WUHU216DAVISVP2,2013-01-15 05:01:00,
2013-01-14 23:02:00,18.3,14.0,30.41,SW,235,1.0,4.0,83,0.00,,,0.01,WUHU216DAVISVP2,2013-01-15 05:02:00,
2013-01-14 23:03:00,18.3,14.0,30.41,SW,235,0.0,4.0,83,0.00,,,0.01,WUHU216DAVISVP2,2013-01-15 05:03:00,
2013-01-14 23:08:00,18.4,14.1,30.41,SW,235,1.0,4.0,83,0.00,,,0.01,WUHU216DAVISVP2,2013-01-15 05:08:00,
2013-01-14 23:13:00,18.3,13.7,30.41,SW,235,0.0,3.0,82,0.00,,,0.01,WUHU216DAVISVP2,2013-01-15 05:13:00,
2013-01-14 23:18:00,18.2,13.7,30.41,SW,235,0.0,3.0,82,0.00,,,0.01,WUHU216DAVISVP2,2013-01-15 05:18:00,
2013-01-14 23:23:00,18.1,13.5,30.41,SW,235,1.0,2.0,82,0.00,,,0.01,WUHU216DAVISVP2,2013-01-15 05:23:00,
2013-01-14 23:28:00,18.1,13.5,30.41,SW,235,0.0,3.0,82,0.00,,,0.01,WUHU216DAVISVP2,2013-01-15 05:28:00,
2013-01-14 23:33:00,18.2,13.9,30.41,SW,235,1.0,3.0,83,0.00,,,0.01,WUHU216DAVISVP2,2013-01-15 05:33:00,
2013-01-14 23:38:00,18.2,13.6,30.41,SW,235,3.0,3.0,82,0.00,,,0.01,WUHU216DAVISVP2,2013-01-15 05:38:00,
2013-01-14 23:43:00,18.2,13.6,30.41,SW,235,0.0,3.0,82,0.00,,,0.01,WUHU216DAVISVP2,2013-01-15 05:43:00,
2013-01-14 23:48:00,18.2,13.6,30.41,SW,235,2.0,3.0,82,0.00,,,0.01,WUHU216DAVISVP2,2013-01-15 05:48:00,
2013-01-14 23:53:00,18.2,13.6,30.41,SW,235,1.0,4.0,82,0.00,,,0.01,WUHU216DAVISVP2,2013-01-15 05:53:00,
2013-01-14 23:58:00,18.2,13.6,30.41,SW,235,3.0,4.0,82,0.00,,,0.01,WUHU216DAVISVP2,2013-01-15 05:58:00,